Precipitable_Water
0.60 0.60 0.58 0.58 0.56 0.56 0.56 0.54 0.54 0.54 0.52 0.50 0.50 0.50 0.50 0.50 0.48 0.48 0.48 0.46 0.44 0.42 0.40 0.40 0.38 0.38 0.38 0.38 0.36 0.36 0.36 0.36 0.36 0.36 0.36 0.36 0.38 0.38 0.38 0.38 0.38 0.38 0.38 0.36 0.36 0.36 0.36 0.36 0.36 0.34 0.34 0.34 0.32 0.32 0.32 0.32 0.30 0.30 0.30 0.30 0.28 0.28 0.28 0.28 0.28 0.28 0.28 0.28 0.28
0.60 0.58 0.58 0.58 0.58 0.56 0.56 0.54 0.54 0.54 0.52 0.52 0.52 0.50 0.50 0.50 0.48 0.46 0.46 0.44 0.44 0.42 0.40 0.38 0.38 0.38 0.36 0.36 0.36 0.36 0.36 0.36 0.36 0.36 0.36 0.36 0.36 0.36 0.36 0.36 0.36 0.36 0.36 0.36 0.36 0.36 0.36 0.34 0.34 0.32 0.32 0.32 0.32 0.32 0.30 0.30 0.30 0.30 0.30 0.28 0.28 0.28 0.28 0.28 0.28 0.28 0.28 0.28 0.28
0.58 0.58 0.58 0.56 0.56 0.56 0.54 0.54 0.52 0.52 0.52 0.52 0.52 0.52 0.50 0.50 0.48 0.46 0.44 0.42 0.42 0.40 0.40 0.36 0.36 0.36 0.36 0.36 0.36 0.36 0.36 0.36 0.36 0.36 0.36 0.36 0.36 0.36 0.36 0.36 0.36 0.36 0.36 0.36 0.36 0.34 0.34 0.34 0.34 0.32 0.32 0.32 0.30 0.30 0.30 0.30 0.30 0.30 0.28 0.28 0.28 0.28 0.28 0.28 0.28 0.28 0.28 0.28 0.28
0.58 0.58 0.56 0.56 0.54 0.54 0.54 0.52 0.52 0.52 0.50 0.50 0.50 0.50 0.50 0.48 0.46 0.44 0.42 0.42 0.40 0.40 0.38 0.36 0.36 0.36 0.36 0.36 0.36 0.36 0.36 0.36 0.36 0.36 0.34 0.34 0.34 0.36 0.36 0.36 0.36 0.36 0.34 0.34 0.34 0.34 0.34 0.34 0.32 0.32 0.32 0.30 0.30 0.30 0.30 0.28 0.28 0.28 0.28 0.28 0.28 0.28 0.28 0.28 0.28 0.28 0.28 0.28 0.28
0.58 0.58 0.56 0.56 0.54 0.54 0.54 0.52 0.52 0.50 0.50 0.50 0.50 0.50 0.48 0.48 0.46 0.44 0.42 0.40 0.40 0.38 0.38 0.38 0.36 0.36 0.36 0.36 0.36 0.36 0.34 0.34 0.34 0.34 0.34 0.34 0.34 0.34 0.34 0.34 0.34 0.34 0.34 0.34 0.34 0.34 0.32 0.32 0.32 0.30 0.30 0.30 0.30 0.28 0.28 0.28 0.28 0.28 0.28 0.28 0.28 0.28 0.28 0.28 0.28 0.28 0.28 0.28 0.28
0.58 0.56 0.56 0.56 0.54 0.54 0.54 0.52 0.52 0.52 0.50 0.50 0.50 0.48 0.46 0.46 0.44 0.42 0.42 0.40 0.40 0.38 0.38 0.38 0.38 0.36 0.36 0.36 0.36 0.34 0.34 0.34 0.34 0.34 0.34 0.34 0.34 0.34 0.34 0.34 0.34 0.34 0.34 0.34 0.34 0.32 0.30 0.30 0.30 0.30 0.30 0.28 0.28 0.28 0.28 0.28 0.28 0.28 0.28 0.28 0.28 0.28 0.28 0.28 0.28 0.28 0.28 0.28 0.28
0.56 0.56 0.56 0.56 0.54 0.54 0.54 0.52 0.52 0.52 0.50 0.50 0.48 0.46 0.46 0.44 0.42 0.42 0.40 0.40 0.40 0.38 0.38 0.38 0.36 0.36 0.36 0.36 0.34 0.34 0.34 0.34 0.34 0.34 0.34 0.34 0.34 0.34 0.34 0.34 0.34 0.34 0.34 0.32 0.32 0.30 0.30 0.28 0.28 0.28 0.28 0.28 0.28 0.28 0.28 0.28 0.28 0.28 0.28 0.28 0.28 0.28 0.28 0.28 0.28 0.28 0.28 0.28 0.26
0.58 0.56 0.56 0.54 0.54 0.54 0.52 0.52 0.52 0.52 0.50 0.48 0.48 0.46 0.46 0.44 0.42 0.40 0.40 0.40 0.38 0.38 0.38 0.38 0.36 0.36 0.36 0.36 0.34 0.34 0.34 0.34 0.34 0.34 0.34 0.34 0.34 0.34 0.34 0.32 0.32 0.32 0.32 0.30 0.30 0.28 0.28 0.28 0.28 0.28 0.26 0.26 0.26 0.28 0.28 0.28 0.28 0.28 0.28 0.26 0.28 0.28 0.28 0.28 0.28 0.28 0.28 0.26 0.26
0.56 0.56 0.54 0.54 0.54 0.54 0.52 0.52 0.52 0.50 0.48 0.48 0.46 0.46 0.44 0.44 0.40 0.40 0.38 0.38 0.38 0.38 0.36 0.36 0.36 0.36 0.36 0.36 0.34 0.34 0.34 0.34 0.34 0.34 0.34 0.34 0.32 0.32 0.32 0.30 0.30 0.30 0.30 0.28 0.28 0.28 0.28 0.28 0.28 0.28 0.28 0.28 0.28 0.28 0.28 0.28 0.28 0.28 0.26 0.26 0.26 0.28 0.28 0.28 0.28 0.28 0.26 0.26 0.24
0.54 0.54 0.54 0.52 0.52 0.52 0.52 0.52 0.50 0.50 0.48 0.46 0.46 0.44 0.42 0.42 0.40 0.38 0.38 0.38 0.36 0.36 0.36 0.36 0.36 0.36 0.36 0.36 0.34 0.34 0.34 0.34 0.34 0.32 0.32 0.32 0.30 0.30 0.30 0.28 0.28 0.28 0.28 0.28 0.28 0.28 0.28 0.28 0.28 0.28 0.28 0.28 0.28 0.28 0.28 0.28 0.26 0.26 0.26 0.26 0.26 0.26 0.26 0.26 0.26 0.26 0.26 0.24 0.24
0.54 0.54 0.52 0.52 0.52 0.52 0.50 0.50 0.48 0.46 0.44 0.44 0.42 0.40 0.40 0.40 0.38 0.38 0.36 0.36 0.36 0.36 0.36 0.36 0.36 0.36 0.36 0.34 0.34 0.34 0.34 0.34 0.32 0.30 0.30 0.30 0.28 0.28 0.28 0.28 0.28 0.26 0.26 0.28 0.28 0.28 0.28 0.28 0.26 0.26 0.26 0.28 0.28 0.28 0.28 0.28 0.26 0.26 0.26 0.26 0.26 0.26 0.26 0.26 0.26 0.26 0.24 0.24 0.24
0.54 0.52 0.52 0.52 0.50 0.50 0.50 0.48 0.48 0.46 0.42 0.42 0.40 0.40 0.38 0.38 0.36 0.36 0.36 0.36 0.36 0.36 0.36 0.36 0.36 0.36 0.34 0.34 0.34 0.32 0.32 0.32 0.30 0.30 0.28 0.28 0.28 0.28 0.28 0.28 0.28 0.28 0.28 0.28 0.28 0.28 0.28 0.28 0.26 0.26 0.26 0.26 0.26 0.26 0.26 0.26 0.26 0.26 0.24 0.24 0.24 0.24 0.24 0.24 0.24 0.24 0.24 0.24 0.24
0.52 0.52 0.50 0.50 0.50 0.50 0.48 0.46 0.46 0.44 0.40 0.40 0.38 0.38 0.36 0.36 0.36 0.36 0.36 0.36 0.36 0.36 0.36 0.36 0.36 0.34 0.34 0.32 0.32 0.30 0.30 0.30 0.28 0.28 0.28 0.28 0.26 0.26 0.26 0.26 0.28 0.28 0.28 0.28 0.28 0.28 0.28 0.26 0.26 0.26 0.26 0.26 0.26 0.26 0.26 0.26 0.26 0.24 0.24 0.24 0.24 0.24 0.24 0.24 0.24 0.24 0.24 0.24 0.24
0.52 0.50 0.50 0.50 0.50 0.48 0.46 0.46 0.44 0.42 0.38 0.38 0.36 0.36 0.36 0.36 0.36 0.38 0.38 0.38 0.36 0.36 0.36 0.36 0.34 0.34 0.32 0.30 0.30 0.30 0.28 0.28 0.28 0.28 0.26 0.26 0.26 0.26 0.26 0.26 0.28 0.28 0.28 0.28 0.28 0.28 0.26 0.26 0.26 0.26 0.26 0.26 0.26 0.26 0.26 0.26 0.26 0.24 0.24 0.24 0.24 0.24 0.24 0.24 0.24 0.24 0.24 0.24 0.24
0.50 0.50 0.50 0.50 0.48 0.46 0.46 0.44 0.42 0.40 0.38 0.36 0.36 0.36 0.36 0.36 0.38 0.38 0.38 0.36 0.36 0.36 0.34 0.34 0.32 0.32 0.30 0.30 0.30 0.28 0.28 0.28 0.28 0.28 0.26 0.26 0.26 0.26 0.26 0.26 0.26 0.26 0.26 0.26 0.26 0.26 0.26 0.26 0.26 0.26 0.26 0.26 0.26 0.26 0.26 0.26 0.26 0.24 0.24 0.24 0.24 0.24 0.24 0.24 0.24 0.24 0.26 0.26 0.26
0.50 0.50 0.50 0.48 0.46 0.46 0.44 0.42 0.40 0.38 0.36 0.36 0.36 0.36 0.38 0.38 0.38 0.38 0.36 0.36 0.36 0.34 0.34 0.32 0.32 0.30 0.30 0.30 0.28 0.28 0.28 0.28 0.28 0.28 0.26 0.26 0.26 0.26 0.26 0.26 0.26 0.26 0.26 0.26 0.26 0.26 0.26 0.26 0.26 0.26 0.26 0.26 0.26 0.26 0.26 0.26 0.24 0.24 0.24 0.24 0.24 0.24 0.24 0.24 0.26 0.26 0.26 0.26 0.26
0.50 0.50 0.48 0.46 0.46 0.44 0.42 0.40 0.38 0.38 0.36 0.36 0.36 0.38 0.38 0.38 0.38 0.36 0.36 0.34 0.34 0.32 0.32 0.30 0.30 0.30 0.28 0.28 0.28 0.28 0.28 0.28 0.28 0.28 0.26 0.26 0.26 0.26 0.26 0.26 0.26 0.26 0.26 0.26 0.26 0.26 0.26 0.26 0.26 0.26 0.26 0.26 0.26 0.26 0.26 0.26 0.24 0.24 0.24 0.24 0.26 0.26 0.26 0.26 0.26 0.26 0.28 0.28 0.28
0.50 0.48 0.46 0.44 0.42 0.42 0.40 0.38 0.38 0.36 0.36 0.38 0.38 0.38 0.38 0.38 0.36 0.36 0.34 0.34 0.32 0.32 0.30 0.30 0.30 0.30 0.28 0.28 0.28 0.28 0.28 0.28 0.28 0.28 0.28 0.26 0.26 0.26 0.26 0.26 0.26 0.26 0.26 0.26 0.26 0.26 0.26 0.26 0.26 0.26 0.26 0.26 0.26 0.26 0.26 0.26 0.26 0.26 0.26 0.26 0.26 0.26 0.26 0.26 0.28 0.28 0.28 0.28 0.28
0.48 0.46 0.44 0.42 0.40 0.40 0.38 0.38 0.36 0.38 0.38 0.38 0.38 0.38 0.38 0.36 0.36 0.34 0.34 0.32 0.32 0.30 0.30 0.30 0.28 0.28 0.28 0.28 0.28 0.28 0.28 0.28 0.28 0.28 0.28 0.28 0.26 0.26 0.26 0.26 0.26 0.26 0.26 0.26 0.26 0.26 0.26 0.26 0.26 0.26 0.26 0.26 0.26 0.26 0.26 0.26 0.26 0.26 0.26 0.26 0.26 0.26 0.26 0.26 0.28 0.28 0.28 0.28 0.28
0.46 0.44 0.42 0.40 0.38 0.38 0.38 0.38 0.38 0.38 0.38 0.38 0.38 0.38 0.36 0.36 0.36 0.34 0.32 0.32 0.32 0.30 0.30 0.30 0.28 0.28 0.28 0.28 0.28 0.28 0.28 0.28 0.28 0.28 0.28 0.28 0.26 0.26 0.26 0.26 0.26 0.26 0.26 0.26 0.26 0.26 0.26 0.26 0.26 0.26 0.26 0.26 0.26 0.26 0.26 0.26 0.26 0.26 0.26 0.26 0.26 0.26 0.26 0.28 0.28 0.28 0.28 0.28 0.28
0.44 0.42 0.40 0.38 0.38 0.38 0.38 0.38 0.38 0.38 0.38 0.38 0.38 0.36 0.36 0.36 0.34 0.34 0.32 0.32 0.32 0.30 0.30 0.30 0.30 0.30 0.30 0.30 0.28 0.28 0.28 0.28 0.28 0.28 0.28 0.28 0.26 0.26 0.26 0.26 0.26 0.26 0.26 0.26 0.26 0.26 0.26 0.26 0.26 0.26 0.26 0.26 0.26 0.26 0.26 0.26 0.26 0.26 0.26 0.26 0.26 0.26 0.26 0.28 0.28 0.28 0.28 0.28 0.28
0.42 0.40 0.40 0.38 0.38 0.38 0.38 0.40 0.40 0.38 0.38 0.38 0.36 0.36 0.36 0.34 0.34 0.34 0.32 0.32 0.32 0.30 0.30 0.30 0.30 0.30 0.30 0.30 0.30 0.28 0.28 0.28 0.28 0.28 0.28 0.28 0.26 0.26 0.26 0.26 0.26 0.26 0.26 0.26 0.26 0.26 0.26 0.26 0.26 0.26 0.26 0.26 0.26 0.28 0.28 0.28 0.28 0.28 0.26 0.26 0.26 0.26 0.28 0.28 0.28 0.28 0.28 0.28 0.28
0.40 0.40 0.38 0.38 0.40 0.40 0.40 0.40 0.38 0.38 0.38 0.36 0.36 0.36 0.36 0.34 0.34 0.34 0.32 0.32 0.30 0.30 0.30 0.30 0.30 0.30 0.30 0.30 0.30 0.28 0.28 0.28 0.28 0.28 0.28 0.28 0.26 0.26 0.26 0.26 0.26 0.26 0.26 0.26 0.26 0.26 0.26 0.26 0.26 0.26 0.28 0.28 0.28 0.28 0.28 0.28 0.28 0.28 0.28 0.26 0.26 0.26 0.26 0.28 0.28 0.28 0.28 0.28 0.28
0.40 0.40 0.40 0.40 0.40 0.40 0.40 0.40 0.38 0.38 0.36 0.36 0.36 0.36 0.34 0.34 0.34 0.32 0.32 0.30 0.30 0.30 0.30 0.30 0.30 0.30 0.30 0.30 0.30 0.28 0.28 0.28 0.26 0.26 0.26 0.26 0.26 0.26 0.26 0.26 0.26 0.26 0.26 0.26 0.26 0.26 0.26 0.26 0.26 0.28 0.30 0.30 0.28 0.28 0.28 0.28 0.28 0.28 0.28 0.26 0.26 0.26 0.26 0.26 0.26 0.28 0.28 0.28 0.28
0.40 0.40 0.40 0.40 0.40 0.40 0.40 0.38 0.38 0.36 0.36 0.36 0.36 0.36 0.34 0.34 0.32 0.32 0.32 0.30 0.30 0.30 0.30 0.30 0.30 0.30 0.30 0.30 0.30 0.28 0.28 0.28 0.26 0.26 0.26 0.26 0.26 0.26 0.26 0.26 0.26 0.26 0.26 0.26 0.26 0.26 0.28 0.28 0.28 0.28 0.30 0.30 0.28 0.28 0.28 0.28 0.28 0.28 0.28 0.26 0.26 0.26 0.26 0.26 0.26 0.26 0.26 0.26 0.28
0.40 0.40 0.40 0.40 0.40 0.40 0.38 0.38 0.36 0.36 0.36 0.36 0.36 0.34 0.34 0.32 0.32 0.32 0.30 0.30 0.30 0.30 0.30 0.30 0.30 0.30 0.30 0.28 0.28 0.28 0.28 0.28 0.28 0.26 0.26 0.26 0.26 0.26 0.26 0.26 0.26 0.26 0.26 0.26 0.26 0.26 0.28 0.28 0.28 0.28 0.30 0.28 0.28 0.28 0.28 0.28 0.28 0.28 0.28 0.28 0.26 0.26 0.26 0.26 0.26 0.26 0.26 0.26 0.26
0.40 0.40 0.40 0.40 0.40 0.38 0.38 0.36 0.36 0.36 0.36 0.36 0.34 0.34 0.32 0.32 0.32 0.30 0.30 0.28 0.30 0.30 0.30 0.30 0.28 0.28 0.28 0.28 0.28 0.28 0.28 0.28 0.28 0.26 0.26 0.26 0.26 0.26 0.26 0.26 0.26 0.26 0.26 0.26 0.26 0.26 0.28 0.28 0.28 0.28 0.28 0.28 0.28 0.28 0.28 0.28 0.28 0.28 0.26 0.26 0.26 0.26 0.26 0.24 0.24 0.24 0.26 0.26 0.26
0.40 0.40 0.40 0.40 0.38 0.38 0.36 0.36 0.36 0.36 0.34 0.34 0.34 0.32 0.32 0.30 0.30 0.30 0.28 0.28 0.28 0.28 0.28 0.28 0.28 0.28 0.28 0.28 0.28 0.28 0.28 0.28 0.26 0.26 0.26 0.26 0.26 0.26 0.26 0.24 0.24 0.24 0.26 0.26 0.26 0.26 0.26 0.26 0.26 0.28 0.28 0.28 0.28 0.28 0.28 0.28 0.26 0.26 0.26 0.26 0.26 0.26 0.24 0.24 0.24 0.24 0.24 0.24 0.26
0.40 0.40 0.38 0.38 0.38 0.36 0.36 0.36 0.36 0.34 0.34 0.34 0.32 0.32 0.30 0.30 0.28 0.28 0.28 0.28 0.28 0.28 0.28 0.28 0.28 0.28 0.28 0.28 0.28 0.28 0.28 0.26 0.26 0.26 0.26 0.26 0.26 0.26 0.24 0.24 0.24 0.24 0.24 0.26 0.26 0.26 0.26 0.26 0.26 0.26 0.28 0.28 0.28 0.28 0.28 0.26 0.26 0.26 0.26 0.26 0.26 0.24 0.24 0.24 0.24 0.24 0.24 0.24 0.24
0.38 0.38 0.38 0.38 0.36 0.36 0.36 0.36 0.34 0.34 0.32 0.32 0.30 0.30 0.28 0.28 0.28 0.28 0.28 0.28 0.26 0.28 0.28 0.28 0.28 0.28 0.28 0.28 0.28 0.28 0.26 0.26 0.26 0.26 0.26 0.26 0.24 0.24 0.24 0.24 0.24 0.24 0.24 0.24 0.24 0.26 0.26 0.26 0.26 0.26 0.26 0.26 0.28 0.28 0.28 0.26 0.26 0.26 0.26 0.24 0.24 0.24 0.24 0.24 0.24 0.24 0.24 0.24 0.24
0.38 0.38 0.36 0.36 0.36 0.36 0.34 0.34 0.34 0.32 0.32 0.30 0.30 0.28 0.28 0.28 0.26 0.26 0.26 0.26 0.28 0.28 0.28 0.28 0.28 0.28 0.28 0.28 0.28 0.26 0.26 0.26 0.26 0.26 0.26 0.24 0.24 0.24 0.24 0.24 0.24 0.24 0.24 0.24 0.24 0.24 0.24 0.26 0.26 0.26 0.26 0.26 0.26 0.26 0.26 0.26 0.26 0.26 0.24 0.24 0.24 0.24 0.24 0.24 0.24 0.24 0.26 0.26 0.26
0.36 0.36 0.36 0.36 0.34 0.34 0.34 0.32 0.32 0.30 0.30 0.28 0.28 0.28 0.26 0.26 0.26 0.26 0.28 0.28 0.28 0.28 0.28 0.28 0.28 0.28 0.26 0.26 0.26 0.26 0.26 0.26 0.26 0.24 0.24 0.24 0.24 0.24 0.24 0.24 0.24 0.24 0.24 0.24 0.24 0.24 0.24 0.26 0.26 0.26 0.26 0.26 0.26 0.26 0.26 0.26 0.26 0.26 0.24 0.24 0.24 0.24 0.24 0.26 0.26 0.26 0.26 0.26 0.26
0.36 0.36 0.34 0.34 0.34 0.32 0.32 0.32 0.30 0.28 0.28 0.26 0.26 0.26 0.26 0.26 0.26 0.26 0.28 0.28 0.28 0.28 0.28 0.28 0.28 0.26 0.26 0.26 0.26 0.26 0.26 0.26 0.24 0.24 0.24 0.24 0.24 0.24 0.22 0.22 0.22 0.22 0.22 0.24 0.24 0.24 0.24 0.26 0.26 0.26 0.26 0.26 0.26 0.26 0.26 0.26 0.24 0.24 0.24 0.24 0.24 0.24 0.26 0.26 0.26 0.26 0.26 0.26 0.26
0.34 0.34 0.34 0.34 0.32 0.32 0.30 0.30 0.28 0.28 0.26 0.26 0.26 0.26 0.26 0.26 0.26 0.26 0.26 0.28 0.28 0.28 0.28 0.28 0.28 0.28 0.26 0.26 0.26 0.26 0.24 0.24 0.24 0.24 0.24 0.24 0.24 0.22 0.22 0.22 0.22 0.22 0.22 0.24 0.24 0.24 0.24 0.26 0.26 0.26 0.26 0.26 0.26 0.26 0.26 0.24 0.24 0.24 0.24 0.24 0.24 0.26 0.26 0.26 0.26 0.26 0.26 0.26 0.26
0.34 0.34 0.34 0.32 0.32 0.30 0.30 0.28 0.28 0.26 0.26 0.26 0.26 0.26 0.26 0.26 0.26 0.28 0.28 0.28 0.28 0.28 0.28 0.28 0.28 0.28 0.26 0.26 0.26 0.24 0.24 0.24 0.24 0.24 0.24 0.22 0.22 0.22 0.22 0.22 0.22 0.22 0.22 0.24 0.24 0.24 0.24 0.24 0.26 0.26 0.26 0.26 0.26 0.26 0.24 0.24 0.24 0.24 0.24 0.24 0.24 0.24 0.26 0.26 0.26 0.26 0.26 0.26 0.28
0.34 0.34 0.32 0.32 0.30 0.28 0.28 0.28 0.26 0.26 0.26 0.26 0.26 0.26 0.26 0.26 0.28 0.28 0.28 0.28 0.28 0.28 0.28 0.28 0.26 0.26 0.26 0.26 0.24 0.24 0.24 0.24 0.22 0.22 0.22 0.22 0.22 0.22 0.20 0.20 0.20 0.22 0.22 0.22 0.24 0.24 0.24 0.24 0.26 0.26 0.26 0.26 0.26 0.24 0.24 0.24 0.24 0.24 0.24 0.24 0.24 0.24 0.24 0.24 0.26 0.26 0.26 0.28 0.28
0.34 0.32 0.32 0.30 0.28 0.28 0.28 0.26 0.26 0.26 0.26 0.26 0.26 0.26 0.26 0.26 0.28 0.28 0.28 0.28 0.28 0.28 0.26 0.26 0.26 0.26 0.24 0.24 0.24 0.24 0.24 0.22 0.22 0.22 0.22 0.22 0.22 0.20 0.20 0.20 0.20 0.22 0.22 0.22 0.22 0.24 0.24 0.24 0.24 0.26 0.26 0.26 0.26 0.26 0.24 0.24 0.24 0.24 0.24 0.24 0.24 0.24 0.24 0.26 0.26 0.26 0.28 0.28 0.28
0.32 0.32 0.30 0.28 0.28 0.28 0.26 0.26 0.26 0.26 0.26 0.26 0.26 0.26 0.28 0.28 0.28 0.28 0.28 0.28 0.28 0.28 0.26 0.26 0.24 0.24 0.24 0.24 0.24 0.22 0.22 0.22 0.22 0.22 0.20 0.20 0.20 0.20 0.20 0.20 0.20 0.20 0.22 0.22 0.22 0.24 0.24 0.24 0.24 0.26 0.26 0.26 0.26 0.26 0.26 0.24 0.24 0.24 0.24 0.24 0.24 0.24 0.26 0.26 0.26 0.28 0.28 0.28 0.28
0.32 0.30 0.30 0.28 0.28 0.26 0.26 0.26 0.26 0.26 0.26 0.26 0.26 0.28 0.28 0.28 0.28 0.28 0.28 0.28 0.28 0.28 0.26 0.26 0.24 0.24 0.24 0.24 0.22 0.22 0.22 0.22 0.22 0.20 0.20 0.20 0.20 0.20 0.20 0.20 0.20 0.20 0.22 0.22 0.22 0.22 0.24 0.24 0.24 0.26 0.26 0.26 0.26 0.26 0.26 0.24 0.24 0.24 0.24 0.24 0.24 0.24 0.26 0.26 0.28 0.28 0.28 0.30 0.30
0.30 0.30 0.28 0.28 0.28 0.28 0.26 0.26 0.26 0.26 0.28 0.28 0.26 0.26 0.28 0.28 0.28 0.28 0.28 0.28 0.28 0.28 0.26 0.26 0.24 0.24 0.24 0.22 0.22 0.22 0.20 0.20 0.20 0.20 0.20 0.20 0.20 0.20 0.20 0.20 0.20 0.20 0.22 0.22 0.22 0.22 0.24 0.24 0.26 0.26 0.26 0.26 0.26 0.26 0.26 0.24 0.24 0.24 0.22 0.24 0.24 0.24 0.26 0.26 0.28 0.28 0.30 0.30 0.32
0.30 0.28 0.28 0.28 0.28 0.28 0.28 0.26 0.28 0.28 0.28 0.28 0.28 0.28 0.28 0.28 0.28 0.28 0.28 0.28 0.28 0.26 0.26 0.26 0.24 0.24 0.22 0.22 0.22 0.20 0.20 0.20 0.20 0.20 0.20 0.20 0.20 0.20 0.20 0.20 0.20 0.20 0.20 0.22 0.22 0.24 0.24 0.24 0.26 0.26 0.26 0.26 0.26 0.26 0.26 0.26 0.24 0.24 0.22 0.22 0.24 0.24 0.26 0.26 0.28 0.30 0.30 0.32 0.32
Wind_Speed
21 21 22 22 22 23 23 24 24 24 25 25 25 26 26 26 27 28 28 29 29 30 30 31 31 32 32 33 33 33 34 34 35 35 36 36 37 37 38 38 38 39 39 40 40 41 41 42 42 42 43 43 44 44 44 45 45 45 45 45 45 45 46 46 46 46 46 46 46
22 22 23 23 23 24 24 24 25 25 25 26 26 26 27 27 28 28 29 29 30 30 31 31 32 32 33 33 34 34 34 35 36 36 36 37 37 38 38 39 39 40 40 41 41 42 42 43 43 43 44 44 45 45 45 46 45 45 46 46 46 46 46 46 46 46 46 47 47
23 23 24 24 24 25 25 25 25 26 26 26 27 27 27 28 28 29 29 30 30 31 31 32 32 33 33 34 35 35 35 36 36 37 37 38 38 39 39 40 40 41 41 42 42 43 43 44 44 44 45 45 45 46 46 46 46 46 46 46 46 46 46 46 46 47 47 47 47
24 24 24 25 25 25 25 26 26 26 26 27 27 27 28 28 29 29 30 31 31 32 32 33 33 34 34 35 35 36 36 37 37 37 38 38 39 39 40 41 41 42 42 43 44 44 45 45 45 45 45 46 46 46 46 46 46 46 46 46 46 46 46 47 47 47 47 47 48
24 25 25 25 26 26 26 26 26 26 27 27 27 28 28 29 30 30 31 31 32 32 33 34 34 35 35 36 36 36 37 37 38 38 39 39 40 41 41 42 42 43 44 44 45 45 45 46 45 46 46 46 46 46 46 46 46 46 46 46 46 46 47 47 47 47 48 48 48
25 25 26 26 26 26 26 27 27 27 27 28 28 29 29 30 30 31 31 32 33 33 34 34 35 35 36 36 37 37 38 38 39 39 40 40 41 42 42 43 44 44 45 45 45 46 46 46 46 46 46 46 46 46 46 46 46 46 47 47 47 47 47 47 48 48 48 49 49
26 26 26 26 26 27 27 27 27 27 28 28 29 29 30 30 31 32 32 33 33 34 35 35 36 36 36 37 37 38 38 39 40 40 41 41 42 43 43 44 45 45 45 46 46 46 46 46 46 46 46 46 46 47 47 47 47 47 47 47 47 47 48 48 48 48 49 49 50
26 26 26 27 27 27 27 27 27 28 28 29 29 30 31 31 32 32 33 34 34 35 35 36 36 37 37 38 38 39 39 40 41 41 42 42 43 44 44 45 45 45 46 46 46 46 46 46 46 46 47 47 47 47 47 47 47 48 48 48 48 48 48 48 49 49 49 50 50
26 27 27 27 27 27 27 27 28 28 29 29 30 31 31 32 33 33 34 34 35 35 36 36 37 37 38 38 39 40 40 41 42 42 43 43 44 44 45 45 45 46 46 46 46 46 46 47 47 47 47 47 47 47 48 48 48 48 49 49 49 49 49 49 49 50 50 50 51
26 27 27 27 27 27 27 28 28 29 29 30 31 31 32 33 33 34 34 35 36 36 36 37 37 38 39 39 40 41 41 42 42 43 44 44 44 45 45 45 46 46 46 46 47 47 47 47 47 47 47 47 48 48 48 49 49 49 49 49 49 50 50 50 50 50 50 51 51
27 27 27 27 27 27 28 28 29 29 30 31 31 32 33 33 34 34 35 35 36 36 37 37 38 39 39 40 41 41 42 43 43 43 44 44 45 45 45 46 46 46 46 47 47 47 47 47 47 48 48 48 48 49 49 49 49 49 50 50 50 50 50 51 50 50 51 51 51
26 26 27 27 27 28 28 29 29 30 30 31 32 33 33 34 34 35 35 36 36 37 38 38 39 39 40 41 41 42 43 43 43 44 44 45 45 45 46 46 46 46 47 47 47 47 47 48 48 48 49 49 49 49 49 50 50 50 50 50 50 51 51 51 51 51 51 51 51
26 27 27 27 28 28 29 29 30 30 31 32 33 33 34 34 35 35 36 36 37 38 38 39 40 40 41 41 42 43 43 44 44 44 45 45 46 46 46 46 47 47 47 47 47 48 48 48 49 49 49 49 49 49 50 50 50 50 51 51 51 51 51 51 51 51 51 51 51
26 27 27 28 28 29 29 30 30 31 32 33 33 34 34 35 35 36 36 37 38 38 39 40 40 41 41 42 43 43 44 44 44 45 45 46 46 46 47 47 47 47 48 48 48 48 48 49 49 49 49 50 50 50 50 50 50 50 51 51 51 51 51 51 51 51 51 51 51
26 27 27 28 29 29 30 30 31 32 32 33 34 34 35 36 36 37 37 38 38 39 40 40 41 42 42 43 43 44 44 44 45 45 46 46 46 47 47 47 48 48 48 48 48 48 49 49 49 49 50 50 50 50 50 50 51 51 51 51 51 51 51 51 51 51 51 51 51
27 27 28 28 29 30 30 31 32 32 33 34 34 35 36 36 37 37 38 38 39 40 40 41 41 42 43 43 44 44 44 45 45 46 46 46 47 47 47 48 48 48 48 48 49 49 49 49 49 50 50 50 50 51 51 51 51 51 51 51 51 51 51 51 51 51 51 51 51
27 28 28 29 30 30 31 32 33 33 34 34 35 36 36 37 37 38 38 39 40 40 41 41 42 42 43 43 44 44 45 45 45 46 46 47 47 48 48 48 48 48 49 49 49 49 49 49 50 50 50 51 51 51 51 51 51 51 51 51 51 51 51 51 51 51 51 51 51
28 28 29 30 30 31 32 33 33 34 34 35 36 36 37 37 38 38 39 40 40 41 41 42 42 43 43 44 44 44 45 45 46 46 47 47 47 48 48 48 48 49 49 49 49 50 50 50 50 51 51 51 51 51 51 51 51 51 51 51 51 51 51 51 51 51 51 51 52
29 29 30 31 31 32 33 33 34 34 35 36 36 37 37 38 38 39 40 40 41 41 42 42 43 43 44 44 45 45 45 46 46 47 47 47 48 48 48 49 49 49 49 49 50 50 50 51 51 51 51 51 52 52 51 51 51 51 51 51 51 51 51 51 51 51 51 52 52
29 30 31 31 32 33 33 34 34 35 36 36 37 37 38 38 39 40 40 41 41 42 42 43 43 44 44 45 45 45 46 46 46 47 47 48 48 48 49 49 49 49 50 50 50 50 51 51 51 51 52 52 52 52 52 51 51 51 51 51 51 51 51 51 51 51 52 52 53
30 31 31 32 32 33 34 34 35 36 36 37 37 38 38 39 40 40 41 41 42 42 43 43 44 44 45 45 45 46 46 46 47 47 48 48 48 49 49 49 49 50 50 50 50 51 51 51 52 52 52 52 51 51 51 51 51 51 51 51 51 51 51 51 52 52 52 53 53
31 31 32 32 33 34 34 35 35 36 37 37 38 38 39 39 40 41 41 42 42 42 43 43 44 44 45 45 46 46 46 47 47 47 48 48 49 49 49 49 50 50 50 51 51 51 51 51 52 51 51 51 51 51 51 51 51 51 51 51 51 51 52 52 52 52 53 53 53
31 32 32 33 34 34 35 35 36 37 37 38 38 39 39 40 41 41 42 42 42 43 43 44 44 45 45 46 46 46 47 47 48 48 48 48 49 49 50 50 50 50 51 51 51 51 51 51 51 51 51 51 51 51 51 51 51 51 51 52 52 52 52 52 52 53 53 53 54
32 32 33 34 34 35 35 36 37 37 38 38 39 39 40 40 41 41 42 42 43 43 44 44 45 45 45 46 46 47 47 48 48 48 49 49 49 49 50 50 50 50 50 51 51 51 51 51 51 51 51 51 51 51 51 51 51 51 52 52 52 53 53 53 53 53 53 54 54
32 33 33 34 35 35 36 36 37 38 38 39 39 40 40 41 41 42 42 43 43 44 44 45 45 45 46 46 47 47 47 48 48 49 49 49 50 50 50 50 50 50 50 50 51 51 51 51 51 50 50 50 51 51 51 51 51 52 52 52 53 53 53 54 54 54 54 54 55
33 33 34 35 35 36 36 37 37 38 39 39 40 40 41 41 42 42 43 43 44 44 44 45 45 46 46 46 47 47 48 48 49 49 49 50 50 50 50 50 50 50 50 51 51 51 52 51 51 51 50 50 51 51 51 52 52 52 52 53 53 54 54 54 55 55 55 55 56
33 34 35 35 36 36 37 37 38 38 39 39 40 40 41 41 42 42 43 43 44 44 45 45 45 46 47 47 47 48 48 48 49 49 49 50 50 50 50 50 50 50 50 51 51 51 51 51 51 51 51 50 51 51 52 52 52 53 53 53 54 54 54 55 55 56 56 57 57
34 34 35 36 36 37 37 38 38 39 39 40 40 41 41 42 42 43 43 44 44 45 45 46 46 46 47 47 48 48 48 49 49 49 49 50 50 50 50 50 50 50 50 51 51 51 51 51 51 51 51 51 51 52 52 53 53 53 53 54 54 54 55 56 56 57 57 58 58
34 35 35 36 37 37 38 38 39 39 40 40 41 41 42 42 43 43 44 44 45 45 46 46 46 47 47 47 48 48 49 49 49 49 49 50 50 50 50 50 50 50 51 51 51 51 51 51 51 51 52 52 52 52 52 53 53 54 54 54 55 55 56 56 57 57 58 58 58
35 35 36 36 37 37 38 38 39 39 40 40 41 41 42 43 43 44 44 45 45 46 46 46 47 47 47 48 48 48 49 49 49 49 49 50 50 50 50 50 50 50 51 51 51 51 51 51 52 52 52 53 53 53 53 53 53 54 54 55 55 56 57 57 58 58 58 58 57
35 36 36 37 37 38 38 39 39 40 40 41 41 42 42 43 44 44 45 45 46 46 46 47 47 47 48 48 48 48 48 49 49 49 49 50 50 50 50 50 50 50 51 51 51 52 52 52 52 52 53 53 53 53 53 54 54 54 55 55 56 57 57 57 58 57 57 57 56
35 36 36 37 38 38 39 39 39 40 41 41 42 42 43 44 44 45 45 45 46 46 47 47 47 48 48 48 48 48 49 49 49 49 49 50 50 50 50 51 50 50 51 51 52 52 52 53 53 53 53 54 54 54 54 54 55 55 56 56 57 57 57 57 57 57 56 56 55
36 36 37 37 38 38 39 39 40 40 41 42 42 43 44 44 45 45 45 46 46 46 47 47 47 48 48 48 48 49 49 49 49 49 50 50 50 50 51 51 50 51 51 52 52 53 53 53 53 53 54 54 54 54 54 55 55 55 56 56 57 57 57 56 56 55 55 54 53
36 36 37 38 38 39 39 40 40 41 41 42 43 43 44 45 45 46 46 46 46 47 47 47 47 47 48 48 48 49 49 49 49 50 50 50 50 50 51 51 51 51 52 52 53 53 53 53 54 54 54 55 54 54 54 55 55 56 56 56 56 56 56 55 55 54 53 52 51
36 37 37 38 39 39 40 40 41 41 42 43 43 44 45 45 45 46 46 46 47 47 47 47 47 47 48 48 48 48 49 49 50 50 50 50 50 51 51 51 51 52 52 53 53 53 54 54 54 54 54 55 54 54 55 55 56 56 56 56 56 55 55 54 53 52 51 50 48
37 37 38 38 39 40 40 41 41 42 43 43 44 45 45 45 46 46 46 46 47 47 47 47 47 47 48 48 48 48 49 49 50 50 50 50 51 51 51 52 52 52 53 53 53 53 54 54 54 54 55 54 54 54 55 55 55 55 55 55 55 54 53 52 51 50 48 47 45
37 38 38 39 39 40 41 41 42 43 43 44 45 45 45 46 46 46 46 46 47 47 47 47 47 48 48 48 49 49 49 49 49 50 50 51 51 51 52 52 52 52 53 53 53 53 54 54 54 54 54 54 54 55 55 55 55 55 54 54 54 53 51 50 48 47 46 44 43
37 38 38 39 40 41 41 42 42 43 44 45 45 45 45 46 46 46 46 46 46 47 47 47 48 48 48 48 49 49 49 49 49 50 50 51 51 51 52 52 53 52 52 53 53 53 54 54 54 54 54 54 55 55 55 55 54 54 53 53 52 51 49 48 46 44 43 42 40
38 38 39 40 40 41 42 42 43 44 44 45 45 46 46 46 46 46 46 46 46 47 47 48 48 48 48 49 49 49 49 49 50 50 50 51 51 51 52 52 53 53 53 53 53 53 54 54 54 54 55 55 55 54 54 54 53 53 52 51 50 49 47 46 44 42 41 39 38
38 39 39 40 41 42 42 43 44 44 45 45 46 46 46 46 46 46 46 46 46 47 47 48 48 48 49 49 49 49 50 50 50 50 50 51 51 52 52 52 52 52 53 53 53 53 53 54 54 54 55 54 54 54 53 53 52 51 50 49 48 47 46 44 42 40 38 37 36
39 39 40 41 42 42 43 44 44 45 45 45 45 46 46 46 46 46 46 46 47 47 47 48 48 49 49 49 49 49 50 50 50 50 51 51 51 52 52 52 52 52 52 52 53 53 53 54 54 54 54 54 53 53 52 51 50 49 49 48 46 45 44 42 40 38 36 35 34
Wind_Direction
292 293 293 293 294 294 294 295 295 296 296 296 296 296 296 297 298 299 299 300 301 301 301 302 302 302 302 302 302 302 302 302 303 303 303 303 302 302 302 302 301 301 301 300 300 300 300 300 299 299 299 299 299 299 299 299 299 299 298 298 298 297 297 297 296 296 296 296 296
293 293 293 294 294 294 295 295 295 295 295 295 295 296 296 297 298 299 300 300 301 301 301 302 302 302 302 302 302 302 302 302 302 303 302 302 302 302 301 301 301 300 300 300 300 300 300 300 300 300 300 299 299 299 299 299 299 299 298 298 298 298 297 297 297 296 296 296 296
292 293 294 294 294 294 295 295 295 295 295 295 295 296 296 297 298 299 300 300 301 301 301 302 302 302 302 302 302 302 302 302 302 302 302 302 302 301 301 301 301 300 300 300 300 300 300 300 300 300 300 300 300 300 300 300 299 299 299 298 298 298 297 297 297 297 297 296 296
292 293 293 293 293 294 294 294 294 294 294 294 295 296 297 298 299 299 300 301 301 301 301 301 301 302 302 302 302 302 302 302 302 302 302 301 301 301 301 301 301 301 301 301 301 301 301 301 300 300 300 300 300 300 300 300 299 299 299 298 298 298 297 297 297 297 297 297 297
292 292 292 292 292 293 293 293 293 293 294 294 295 296 297 298 299 299 300 301 301 301 301 301 301 302 302 302 302 302 302 302 302 302 302 301 301 301 301 301 301 301 301 301 301 301 301 301 301 301 301 300 300 300 300 300 299 299 299 298 298 298 298 297 297 297 297 297 297
290 291 291 291 291 291 292 292 292 292 293 294 295 296 297 298 299 299 300 300 300 301 301 301 301 302 302 302 302 302 302 302 302 302 302 302 302 302 302 302 302 302 302 302 302 302 302 301 301 301 301 301 300 300 300 300 299 299 299 298 298 298 298 298 298 298 298 297 297
289 290 290 290 290 290 291 291 292 292 293 294 295 296 297 298 298 299 299 300 300 301 301 301 302 302 302 302 302 302 302 302 302 302 302 302 302 303 303 303 303 303 303 302 302 302 302 302 302 301 301 301 301 300 300 300 300 299 299 299 299 299 299 298 298 298 298 298 298
289 289 289 289 289 289 290 291 291 292 293 294 295 296 297 298 298 299 299 300 300 300 301 301 302 302 302 302 302 302 302 303 303 303 303 303 303 303 303 303 303 303 303 303 303 302 302 302 302 301 301 301 301 300 300 300 300 300 299 299 299 299 299 299 299 299 298 298 298
288 288 288 288 289 289 290 291 291 292 293 294 295 296 297 298 298 299 299 300 300 301 301 301 302 302 302 302 302 303 303 303 303 303 303 303 304 304 304 303 303 303 303 303 303 303 303 302 302 302 301 301 301 301 301 301 300 300 300 300 300 300 299 299 299 299 299 298 298
287 287 287 288 289 289 290 291 292 293 294 295 295 296 297 298 298 299 299 300 300 301 301 301 302 302 302 303 303 303 303 303 303 304 304 304 304 304 304 304 304 304 303 303 303 303 303 303 302 302 302 302 301 301 301 301 301 301 300 300 300 300 300 300 299 299 299 299 298
287 287 288 288 289 290 290 291 292 293 294 295 296 297 298 298 299 299 299 300 301 301 301 302 302 302 303 303 303 303 304 304 304 304 304 304 304 304 304 304 304 304 304 304 304 304 303 303 303 303 302 302 302 302 302 302 301 301 301 301 301 300 300 300 300 299 299 299 298
287 287 288 288 289 290 291 292 293 294 295 296 297 298 298 299 299 299 300 301 301 301 302 302 303 303 303 303 304 304 304 304 305 305 305 305 305 305 305 304 304 304 304 304 304 304 304 304 303 303 303 303 303 303 302 302 302 302 301 301 301 301 300 300 300 300 299 299 299
287 288 288 289 290 291 292 293 294 295 296 297 298 298 299 299 299 300 300 301 301 302 302 303 303 303 304 304 304 305 305 305 305 305 305 305 305 305 305 305 305 305 305 305 305 304 304 304 304 304 303 303 303 303 303 303 302 302 302 301 301 301 301 301 300 300 300 300 300
288 288 289 290 291 292 293 294 295 296 297 298 298 298 299 299 300 300 301 301 302 302 303 303 304 304 304 304 305 305 305 305 305 305 305 305 305 305 305 305 305 305 305 305 305 305 305 304 304 304 304 304 303 303 303 303 303 302 302 302 302 302 301 301 301 301 301 300 300
288 289 290 291 292 293 294 295 296 297 298 298 298 299 299 300 300 301 301 302 302 303 303 304 304 304 305 305 305 305 305 305 306 306 306 306 306 306 306 306 306 306 305 305 305 305 305 304 304 304 304 304 304 304 303 303 303 303 303 302 302 302 302 302 302 301 301 301 301
289 290 291 292 293 294 295 296 297 297 298 298 299 299 300 300 301 301 302 302 303 303 304 304 304 305 305 305 305 305 306 306 306 306 306 306 306 306 306 306 306 306 306 305 305 305 305 305 304 304 304 304 304 304 304 304 304 303 303 303 303 302 302 302 302 302 302 301 301
290 291 292 293 294 295 296 296 297 297 298 298 299 299 300 301 302 302 303 303 303 304 304 304 305 305 305 305 305 306 306 306 306 306 306 306 306 306 306 306 306 306 306 306 305 305 305 305 305 305 305 305 305 304 304 304 304 304 303 303 303 303 302 302 302 302 302 302 301
291 292 293 294 295 295 296 296 297 297 298 299 299 300 301 301 302 303 303 303 304 304 304 304 305 305 305 305 305 306 306 306 306 306 306 306 306 306 306 306 306 306 306 306 305 305 305 305 305 305 305 305 305 305 305 305 304 304 304 303 303 303 303 303 302 302 302 302 302
292 293 294 294 295 295 296 296 297 298 298 299 300 301 301 302 303 303 303 304 304 304 304 304 305 305 305 305 305 306 306 306 306 306 306 306 306 306 306 306 306 306 306 306 306 306 306 306 306 306 306 306 305 305 305 305 305 304 304 304 303 303 303 303 302 302 302 302 302
292 293 294 294 295 295 296 296 297 298 299 300 301 301 302 302 303 303 304 304 304 304 304 304 305 305 305 305 306 306 306 306 306 306 306 306 306 306 306 306 306 306 306 306 306 306 306 306 306 306 306 306 306 305 305 305 305 304 304 304 303 303 303 302 302 302 302 302 301
293 293 294 294 295 295 296 297 298 299 299 300 301 302 302 303 303 303 303 304 304 304 304 304 305 305 305 305 306 306 306 306 306 306 306 306 306 306 306 307 307 307 307 307 307 307 307 307 307 306 306 306 306 305 305 305 305 304 304 303 303 303 302 302 302 302 302 301 301
293 293 294 294 295 296 297 297 298 299 300 301 301 302 302 303 303 303 303 304 304 304 304 304 305 305 305 305 306 306 306 306 306 306 306 306 307 307 307 307 307 307 307 307 307 307 307 307 307 306 306 306 305 305 305 304 304 304 303 303 303 302 302 302 302 302 301 301 301
293 293 294 295 296 296 297 298 299 300 301 301 302 302 302 303 303 303 303 304 304 304 304 304 305 305 305 305 305 306 306 306 306 306 306 307 307 307 307 307 308 308 307 307 307 307 307 307 307 306 306 306 305 305 304 304 303 303 303 303 302 302 302 302 302 302 302 302 301
293 294 294 295 296 297 298 299 300 300 301 301 302 302 302 303 303 303 303 304 304 304 304 305 305 305 305 305 305 306 306 306 306 307 307 307 307 307 308 308 308 308 308 308 308 307 307 307 307 306 306 305 305 304 304 303 303 303 303 303 303 303 303 302 302 302 302 302 302
293 294 295 296 297 298 299 299 300 300 301 301 302 302 302 303 303 303 303 304 304 304 304 305 305 305 305 305 306 306 306 306 306 307 307 307 307 308 308 308 308 308 308 308 307 307 307 307 307 306 306 305 305 304 304 303 303 303 303 303 303 303 303 303 303 303 303 303 303
294 295 296 296 297 298 299 300 300 301 301 301 302 302 302 303 303 303 303 304 304 304 305 305 305 305 305 306 306 306 306 307 307 307 307 307 308 308 308 308 308 308 308 308 308 307 307 307 306 306 305 305 305 304 304 304 304 304 304 304 304 304 304 304 304 304 304 303 303
295 295 296 297 298 299 299 300 300 301 301 301 302 302 302 303 303 303 304 304 304 305 305 305 305 305 306 306 306 306 307 307 307 307 307 307 308 308 308 308 308 308 308 308 308 308 307 307 307 306 306 305 305 305 305 304 305 305 305 305 305 305 305 304 304 304 304 304 304
295 296 297 298 298 299 299 300 300 301 301 301 302 302 302 303 303 304 304 304 305 305 305 305 305 306 306 306 306 307 307 307 307 307 308 308 308 308 308 308 309 309 308 308 308 308 308 307 307 306 306 306 305 305 305 305 305 305 305 305 305 305 305 305 305 305 305 305 304
296 297 297 298 298 299 300 300 300 301 301 301 302 302 303 303 303 304 304 305 305 305 305 306 306 306 306 306 307 307 307 307 307 308 308 308 308 308 309 309 309 309 309 309 308 308 308 308 307 307 307 306 306 306 306 306 306 306 306 306 306 306 306 306 306 305 305 305 304
296 297 298 298 299 299 299 300 300 301 301 302 302 303 303 303 304 304 305 305 305 305 305 306 306 306 306 307 307 307 307 308 308 308 308 308 309 309 309 309 309 309 309 309 309 309 308 308 308 307 307 307 307 306 306 306 306 306 306 306 306 306 306 306 306 306 306 305 305
297 297 298 298 299 299 300 300 301 301 301 302 302 303 303 304 304 304 305 305 305 305 306 306 306 306 307 307 307 307 308 308 308 309 309 309 309 309 310 310 310 310 310 309 309 309 309 308 308 308 308 307 307 307 307 307 307 307 307 307 307 307 307 307 306 306 306 305 305
297 297 298 298 299 299 300 300 301 301 302 302 303 303 304 304 304 305 305 305 305 306 306 306 306 307 307 307 308 308 308 308 309 309 309 309 310 310 310 310 310 310 310 310 310 309 309 309 308 308 308 308 308 307 307 307 307 307 307 307 307 307 307 307 307 306 306 305 305
297 297 298 299 299 300 300 301 301 302 302 303 303 304 304 304 304 305 305 305 305 306 306 306 307 307 307 308 308 308 309 309 309 309 310 310 310 310 310 310 310 310 310 310 310 310 309 309 309 308 308 308 308 308 308 308 308 308 308 308 307 307 307 307 307 306 306 305 305
297 298 298 299 299 300 300 301 302 302 303 303 303 304 304 304 305 305 305 305 305 306 306 306 307 307 308 308 308 309 309 309 310 310 310 310 310 311 311 311 311 311 311 311 310 310 310 309 309 309 309 309 308 308 308 308 308 308 308 308 308 307 307 307 307 306 306 305 305
298 298 299 299 300 300 301 301 302 303 303 303 304 304 304 304 304 305 305 305 306 306 306 307 307 308 308 308 309 309 310 310 310 310 311 311 311 311 311 311 311 311 311 311 311 311 310 310 310 309 309 309 309 309 308 308 308 308 308 308 308 308 307 307 307 307 306 305 305
298 299 299 299 300 301 301 302 302 303 303 303 304 304 304 304 305 305 305 306 306 306 307 307 308 308 309 309 309 310 310 310 311 311 311 311 311 311 311 311 311 311 312 311 311 311 311 311 310 310 310 310 309 309 309 309 309 308 308 308 308 308 308 308 307 307 306 306 305
298 299 299 300 300 301 302 302 303 303 303 303 304 304 304 304 305 305 306 306 306 307 307 308 308 309 309 309 310 310 310 311 311 311 311 312 312 312 312 312 312 312 312 312 312 312 312 311 311 311 311 310 310 310 310 309 309 309 309 308 308 308 308 308 308 307 306 306 305
299 299 300 300 301 302 302 302 303 303 303 303 303 304 304 305 305 306 306 306 307 307 308 308 309 309 309 310 310 310 311 311 311 311 312 312 312 312 312 312 312 312 312 313 312 312 312 312 312 312 311 311 311 310 310 310 309 309 309 309 309 309 309 308 308 307 307 306 305
299 300 300 301 301 302 302 302 302 303 303 303 304 304 305 305 305 306 306 307 307 307 308 308 309 309 310 310 310 311 311 311 311 312 312 312 312 312 312 312 313 313 313 313 313 313 313 313 313 312 312 311 311 311 310 310 310 310 309 309 309 309 309 309 308 308 307 306 305
300 300 301 301 301 302 302 302 302 303 303 304 304 305 305 305 306 306 307 307 307 308 308 309 309 310 310 310 311 311 311 311 312 312 312 312 312 312 313 313 313 313 313 314 314 314 313 313 313 313 312 312 311 311 311 311 310 310 310 310 310 309 309 309 308 308 307 306 305
301 301 301 301 301 302 302 302 302 303 303 304 304 305 305 306 306 306 307 307 308 308 309 309 309 310 310 311 311 311 311 312 312 312 312 312 312 313 313 313 313 314 314 314 314 314 314 314 314 313 313 312 312 312 311 311 311 310 310 310 310 310 309 309 309 308 307 306 306